Regional Weather Roundup
Issued by NWS

Home | Current Version | Previous Version | Graphics & Text | Print | Product List | Glossary On
Versions: 1 2 3 4 5 6 7 8 9 10 11 12 13 14 15 16 17 18 19 20 21 22 23 24 25 26 27 28 29 30 31 32 33 34 35 36 37 38 39 40 41 42 43 44 45 46 47 48 49 50
000
ASUS45 KCYS 171310
RWRWY

WYOMING REGIONAL WEATHER ROUNDUP
NATIONAL WEATHER SERVICE CHEYENNE WY
600 AM MST SUN DEC 17 2017

NOTE:  "FAIR" INDICATES FEW OR NO CLOUDS BELOW 12,000 FEET
WITH NO SIGNIFICANT WEATHER AND/OR OBSTRUCTIONS TO VISIBILITY.

WYZ001-171400-
YELLOWSTONE NATIONAL PARK

CITY           SKY/WX    TMP DP  RH WIND       PRES   REMARKS
LK YELLOWSTONE   N/A     -8 -13  78 CALM      30.02R
W YELLOWSTONE  NOT AVBL

$$
WYZ002>013-054>058-071-098>099-171400-
NORTHERN WYOMING

CITY           SKY/WX    TMP DP  RH WIND       PRES   REMARKS
JACKSON        MOCLDY     2  -1  88 NE3       30.06R
CODY           FLURRIES  19  13  77 S13G25    29.91F WCI   6
GREYBULL       MOCLDY    21  20  96 CALM      29.98F
WORLAND        CLOUDY    25  24  96 SE9       29.97F WCI  15
SHERIDAN       FOG       21  20  96 SE5       29.93F VSB 3/4 WCI  15
BUFFALO        CLOUDY    18  11  74 SW6       29.90F WCI  10
GILLETTE       MOCLDY    23  20  88 S13       29.93F WCI  11
HULETT         FLURRIES  27  25  93 SW7       29.96F WCI  19
NEWCASTLE      CLOUDY    27  27 100 SE3       30.01R

$$
WYZ014>020-022>026-101>103-171400-
CENTRAL WYOMING

CITY           SKY/WX    TMP DP  RH WIND       PRES   REMARKS
BIG PINEY      FAIR      10   6  84 NE13      30.01R WCI  -5
PINEDALE       FAIR       9   5  85 N6        30.00R WCI  -1
DUBOIS         FAIR      18  10  73 W28       29.92F WCI  -1
LANDER         CLOUDY    22  18  85 SW7       29.95F WCI  13
RIVERTON       CLOUDY    22  20  92 SW7       29.96F WCI  13
CASPER         CLOUDY    22  19  89 W10       29.97R WCI  11
DOUGLAS        CLOUDY    27  26  96 S5        29.97R WCI  22

$$
WYZ021-027>030-104>119-171400-
SOUTHERN WYOMING

CITY           SKY/WX    TMP DP  RH WIND       PRES   REMARKS
EVANSTON       CLOUDY    19  17  92 NW3       30.07R
ROCK SPRINGS   CLOUDY    20  16  84 W23       30.00R WCI   3
DIXON          CLOUDY    23  17  77 SE3       30.03R
RAWLINS        CLOUDY    25  22  88 W5        29.96R WCI  19
SARATOGA       CLOUDY    19  19 100 SE6       29.98R WCI  11
LARAMIE        FOG       17  16  95 S6        29.92R VSB 1/4 WCI   9
CHEYENNE       CLOUDY    26  26 100 E3        29.95R
TORRINGTON     CLOUDY    28  28 100 NE3       30.01R
PINE BLUFFS    CLOUDY    28  28 100 SE3       29.99S

$$



USA.gov is the U.S. government's official web portal to all federal, state and local government web resources and services.